EW8518 Weather Reports


time (UTC)temp
F
wind
direction
speed
knots
gust
knots
rain 1hr
in
rain 24hr
in
rain mn
in
humidity
%
barometer
mb
20260504001601 61 146 1.7 4.3 0.00 0.00 0.00 70 1014.2
20260504000053 62 146 3.5 8.7 0.00 0.00 0.00 70 1014.3
20260503234541 61 147 6.1 9.6 0.00 0.00 0.00 72 1014.3
20260503233033 62 171 4.3 9.6 0.00 0.00 0.00 72 1014.4
20260503231515 62 153 4.3 12.2 0.00 0.00 0.00 71 1014.5
20260503230017 62 190 2.6 8.7 0.00 0.00 0.00 71 1014.5
20260503224614 62 196 4.3 9.6 0.00 0.00 0.00 72 1014.5
20260503223059 61 188 4.3 8.7 0.00 0.00 0.00 73 1014.5
20260503221556 61 163 5.2 9.6 0.00 0.00 0.00 77 1014.6
20260503220039 60 147 1.7 6.1 0.00 0.00 0.00 79 1014.7
20260503214538 60 147 2.6 6.1 0.00 0.00 0.00 80 1014.7
20260503213021 61 147 1.7 4.3 0.00 0.00 0.00 80 1014.9
20260503211522 61 147 2.6 6.1 0.00 0.00 0.00 80 1014.9
20260503210002 61 146 1.7 4.3 0.00 0.00 0.00 80 1015.0
20260503204503 62 146 1.7 6.1 0.00 0.00 0.00 80 1015.1
20260503203044 62 146 1.7 4.3 0.00 0.00 0.00 80 1015.2
20260503201545 62 146 1.7 6.1 0.00 0.00 0.00 80 1015.2
20260503200034 61 145 1.7 6.1 0.00 0.00 0.00 79 1015.1
20260503194535 62 145 2.6 4.3 0.00 0.00 0.00 79 1015.1
20260503193037 62 144 1.7 6.1 0.00 0.00 0.00 78 1015.1
20260503191530 62 142 2.6 7.0 0.00 0.00 0.00 78 1014.9
20260503190030 62 140 2.6 4.3 0.00 0.00 0.00 77 1014.8
20260503184537 62 140 1.7 7.0 0.00 0.00 0.00 76 1014.8
20260503183029 63 140 1.7 6.1 0.00 0.00 0.00 74 1014.8
20260503181528 63 138 1.7 8.7 0.00 0.00 0.00 73 1014.6
20260503180020 64 136 0.9 4.3 0.00 0.00 0.00 72 1014.6
20260503174511 64 136 2.6 7.0 0.00 0.00 0.00 72 1014.5
20260503173116 65 134 5.2 13.9 0.00 0.00 0.00 72 1014.5
20260503171552 65 138 5.2 12.2 0.00 0.00 0.00 73 1014.6
20260503090104 68 348 4.3 7.0 0.00 0.00 0.00 68 1017.7
20260503081556 69 129 7.0 12.2 0.00 0.00 0.00 57 1017.5
20260503071510 63 123 3.5 10.4 0.00 0.00 0.00 77 1017.3
20260503054502 57 252 0.0 2.6 0.00 0.00 0.00 85 1017.6
20260503053041 54 261 0.9 2.6 0.00 0.00 0.00 83 1017.6
20260503051536 53 261 0.9 2.6 0.00 0.00 0.00 83 1017.6
20260503050016 52 261 0.9 2.6 0.00 0.00 0.00 83 1017.6
20260503044512 51 261 1.7 5.2 0.00 0.00 0.00 82 1017.6
20260503043054 50 261 1.7 3.5 0.00 0.00 0.00 81 1017.6
20260503041605 50 261 1.7 5.2 0.00 0.00 0.00 82 1017.5
20260503040044 49 262 2.6 6.1 0.00 0.00 0.00 81 1017.5
20260503034544 50 263 0.9 3.5 0.00 0.00 0.00 81 1017.6
20260503033012 49 263 1.7 2.6 0.00 0.00 0.00 80 1017.8
20260503031513 49 263 2.6 5.2 0.00 0.00 0.00 79 1017.9
20260503030055 49 263 1.7 5.2 0.00 0.00 0.00 79 1018.0
20260503024552 48 263 2.6 5.2 0.00 0.00 0.00 78 1018.1
20260503023037 49 263 2.6 3.5 0.00 0.00 0.00 78 1018.2
20260503021541 49 263 0.9 5.2 0.00 0.00 0.00 78 1018.1
20260503020031 49 264 0.9 2.6 0.00 0.00 0.00 78 1018.0
20260503014529 49 264 2.6 5.2 0.00 0.00 0.00 78 1018.1
20260503013027 49 264 1.7 3.5 0.00 0.00 0.00 78 1018.1
20260503011526 49 264 1.7 3.5 0.00 0.00 0.00 77 1018.1
20260503010025 50 264 1.7 3.5 0.00 0.00 0.00 77 1018.2
20260503004523 50 264 0.9 3.5 0.00 0.00 0.00 76 1018.4
20260503003009 50 264 2.6 5.2 0.00 0.00 0.00 74 1018.5